Terminal Aerodrome Forecast
Issued by NWS

Home | Current Version | Previous Version | Text Only | Print | Product List | Glossary Off
Versions: 1 2 3 4 5 6 7 8 9 10 11 12 13 14 15 16 17 18 19

000
FTUS43 KABR 172300
TAFMBG
TAF
KMBG 172320Z 1800/1824 09009KT P6SM VCSH BKN100
     FM181500 16016G25KT P6SM BKN250=

USA.gov is the U.S. government's official web portal to all federal, state and local government web resources and services.